| time (UTC) | temp C | wind direction | speed KPH | gust KPH | rain 1hr cm | rain 24hr cm | rain mn cm | humidity % | barometer mb |
| 20260508174521 | 17 | 163 | 0.0 | 4.8 | 0.00 | 0.00 | 0.00 | 73 | 1008.3 |
| 20260508174101 | 17 | 160 | 0.0 | 3.2 | 0.00 | 0.00 | 0.00 | 74 | 1008.4 |
| 20260508173536 | 17 | 160 | 0.0 | 3.2 | 0.00 | 0.00 | 0.00 | 73 | 1008.5 |
| 20260508173016 | 17 | 165 | 0.0 | 3.2 | 0.00 | 0.00 | 0.00 | 73 | 1008.7 |
| 20260508172555 | 17 | 165 | 0.0 | 4.8 | 0.00 | 0.00 | 0.00 | 72 | 1008.9 |
| 20260508172029 | 17 | 167 | 0.0 | 3.2 | 0.00 | 0.00 | 0.00 | 73 | 1009.0 |
| 20260508171506 | 17 | 139 | 0.0 | 0.0 | 0.00 | 0.00 | 0.00 | 73 | 1009.2 |
| 20260508171046 | 17 | 139 | 0.0 | 1.6 | 0.00 | 0.00 | 0.00 | 72 | 1009.2 |
| 20260508170522 | 17 | 139 | 0.0 | 1.6 | 0.00 | 0.00 | 0.00 | 73 | 1009.1 |
| 20260508165538 | 17 | 172 | 0.0 | 0.0 | 0.00 | 0.00 | 0.00 | 71 | 1009.4 |
| 20260508165014 | 17 | 172 | 0.0 | 3.2 | 0.00 | 0.00 | 0.00 | 70 | 1009.6 |
| 20260508164559 | 17 | 172 | 0.0 | 3.2 | 0.00 | 0.00 | 0.00 | 70 | 1009.4 |
| 20260508164031 | 17 | 153 | 0.0 | 3.2 | 0.00 | 0.00 | 0.00 | 70 | 1009.3 |
| 20260508163508 | 17 | 170 | 0.0 | 3.2 | 0.00 | 0.00 | 0.00 | 70 | 1009.2 |
| 20260508163048 | 17 | 198 | 0.0 | 3.2 | 0.00 | 0.00 | 0.00 | 70 | 1009.2 |
| 20260508162525 | 17 | 144 | 0.0 | 4.8 | 0.00 | 0.00 | 0.00 | 72 | 1009.2 |
| 20260508162003 | 17 | 160 | 0.0 | 4.8 | 0.00 | 0.00 | 0.00 | 71 | 1009.0 |
| 20260508161542 | 17 | 143 | 0.0 | 4.8 | 0.00 | 0.00 | 0.00 | 70 | 1009.1 |
| 20260508161018 | 17 | 163 | 0.0 | 1.6 | 0.00 | 0.00 | 0.00 | 71 | 1009.2 |
| 20260508160559 | 17 | 149 | 0.0 | 1.6 | 0.00 | 0.00 | 0.00 | 71 | 1009.3 |
| 20260508160036 | 17 | 139 | 0.0 | 0.0 | 0.00 | 0.00 | 0.00 | 71 | 1009.3 |
| 20260508155511 | 17 | 162 | 0.0 | 3.2 | 0.00 | 0.00 | 0.00 | 70 | 1009.2 |
| 20260508155055 | 17 | 162 | 0.0 | 4.8 | 0.00 | 0.00 | 0.00 | 70 | 1009.3 |
| 20260508154542 | 17 | 149 | 0.0 | 4.8 | 0.00 | 0.00 | 0.00 | 71 | 1009.5 |
| 20260508154003 | 17 | 150 | 0.0 | 3.2 | 0.00 | 0.00 | 0.00 | 70 | 1009.5 |
| 20260508153545 | 16 | 155 | 0.0 | 3.2 | 0.00 | 0.00 | 0.00 | 71 | 1009.5 |
| 20260508153020 | 16 | 281 | 0.0 | 3.2 | 0.00 | 0.00 | 0.00 | 72 | 1009.6 |
| 20260508152600 | 16 | 281 | 0.0 | 3.2 | 0.00 | 0.00 | 0.00 | 70 | 1009.6 |
| 20260508152036 | 16 | 148 | 0.0 | 4.8 | 0.00 | 0.00 | 0.00 | 74 | 1009.7 |
| 20260508151515 | 15 | 148 | 0.0 | 4.8 | 0.00 | 0.00 | 0.00 | 73 | 1009.7 |
| 20260508151054 | 15 | 155 | 0.0 | 1.6 | 0.00 | 0.00 | 0.00 | 73 | 1009.8 |
| 20260508150531 | 15 | 155 | 0.0 | 1.6 | 0.00 | 0.00 | 0.00 | 74 | 1009.8 |
| 20260508150006 | 15 | 155 | 0.0 | 0.0 | 0.00 | 0.00 | 0.00 | 74 | 1009.8 |
| 20260508145547 | 15 | 155 | 0.0 | 0.0 | 0.00 | 0.00 | 0.00 | 74 | 1009.9 |
| 20260508145023 | 15 | 155 | 0.0 | 1.6 | 0.00 | 0.00 | 0.00 | 74 | 1009.8 |
| 20260508144610 | 15 | 155 | 0.0 | 1.6 | 0.00 | 0.00 | 0.00 | 73 | 1009.8 |
| 20260508144040 | 15 | 155 | 0.0 | 1.6 | 0.00 | 0.00 | 0.00 | 73 | 1009.7 |
| 20260508143517 | 15 | 136 | 0.0 | 4.8 | 0.00 | 0.00 | 0.00 | 73 | 1009.6 |
| 20260508143105 | 15 | 136 | 0.0 | 6.4 | 0.00 | 0.00 | 0.00 | 73 | 1009.6 |
| 20260508142534 | 15 | 156 | 1.6 | 6.4 | 0.00 | 0.00 | 0.00 | 73 | 1009.6 |
| 20260508142010 | 15 | 160 | 0.0 | 4.8 | 0.00 | 0.00 | 0.00 | 74 | 1009.7 |
| 20260508141558 | 14 | 160 | 0.0 | 4.8 | 0.00 | 0.00 | 0.00 | 74 | 1009.6 |
| 20260508141028 | 14 | 155 | 0.0 | 3.2 | 0.00 | 0.00 | 0.00 | 74 | 1009.7 |
| 20260508140505 | 14 | 155 | 0.0 | 4.8 | 0.00 | 0.00 | 0.00 | 74 | 1009.7 |
| 20260508140045 | 14 | 158 | 0.0 | 4.8 | 0.00 | 0.00 | 0.00 | 73 | 1009.7 |
| 20260508135521 | 14 | 160 | 0.0 | 3.2 | 0.00 | 0.00 | 0.00 | 73 | 1009.8 |
| 20260508135101 | 14 | 155 | 0.0 | 1.6 | 0.00 | 0.00 | 0.00 | 73 | 1009.8 |
| 20260508134553 | 14 | 163 | 0.0 | 1.6 | 0.00 | 0.00 | 0.00 | 74 | 1009.8 |
| 20260508134014 | 14 | 162 | 0.0 | 0.0 | 0.00 | 0.00 | 0.00 | 74 | 1009.9 |
| 20260508133555 | 14 | 162 | 0.0 | 0.0 | 0.00 | 0.00 | 0.00 | 74 | 1010.0 |
| 20260508133045 | 14 | 162 | 0.0 | 1.6 | 0.00 | 0.00 | 0.00 | 74 | 1010.0 |
| 20260508132506 | 14 | 162 | 0.0 | 1.6 | 0.00 | 0.00 | 0.00 | 74 | 1009.8 |
| 20260508132047 | 14 | 156 | 0.0 | 0.0 | 0.00 | 0.00 | 0.00 | 74 | 1010.0 |
| 20260508131523 | 14 | 156 | 0.0 | 1.6 | 0.00 | 0.00 | 0.00 | 74 | 1010.0 |
| 20260508131105 | 14 | 156 | 0.0 | 1.6 | 0.00 | 0.00 | 0.00 | 74 | 1010.0 |
| 20260508130540 | 13 | 156 | 0.0 | 1.6 | 0.00 | 0.00 | 0.00 | 74 | 1010.0 |
| 20260508130016 | 13 | 96 | 0.0 | 1.6 | 0.00 | 0.00 | 0.00 | 74 | 1010.0 |
| 20260508125556 | 13 | 96 | 0.0 | 1.6 | 0.00 | 0.00 | 0.00 | 73 | 1010.0 |
| 20260508125034 | 13 | 95 | 0.0 | 1.6 | 0.00 | 0.00 | 0.00 | 74 | 1010.0 |
| 20260508124512 | 13 | 158 | 0.0 | 0.0 | 0.00 | 0.00 | 0.00 | 74 | 1010.0 |
| 20260508124050 | 13 | 158 | 0.0 | 1.6 | 0.00 | 0.00 | 0.00 | 74 | 1009.8 |
| 20260508123526 | 13 | 158 | 0.0 | 1.6 | 0.00 | 0.00 | 0.00 | 74 | 1009.7 |
| 20260508123002 | 13 | 141 | 0.0 | 6.4 | 0.00 | 0.00 | 0.00 | 74 | 1009.5 |
| 20260508122543 | 13 | 141 | 0.0 | 6.4 | 0.00 | 0.00 | 0.00 | 74 | 1009.4 |
| 20260508122018 | 13 | 152 | 0.0 | 3.2 | 0.00 | 0.00 | 0.00 | 75 | 1009.6 |
| 20260508121559 | 13 | 158 | 0.0 | 1.6 | 0.00 | 0.00 | 0.00 | 74 | 1009.5 |
| 20260508121035 | 13 | 158 | 0.0 | 1.6 | 0.00 | 0.00 | 0.00 | 75 | 1009.2 |
| 20260508120512 | 13 | 158 | 0.0 | 1.6 | 0.00 | 0.00 | 0.00 | 75 | 1009.2 |
| 20260508120053 | 13 | 158 | 0.0 | 3.2 | 0.00 | 0.00 | 0.00 | 74 | 1009.2 |
| 20260508115532 | 13 | 158 | 0.0 | 3.2 | 0.00 | 0.00 | 0.00 | 75 | 1009.2 |
| 20260508115003 | 13 | 158 | 0.0 | 4.8 | 0.00 | 0.00 | 0.00 | 75 | 1009.1 |
| 20260508114543 | 13 | 154 | 1.6 | 4.8 | 0.00 | 0.00 | 0.00 | 75 | 1009.0 |
| 20260508114019 | 13 | 157 | 0.0 | 3.2 | 0.00 | 0.00 | 0.00 | 75 | 1009.0 |
| 20260508113559 | 13 | 161 | 0.0 | 3.2 | 0.00 | 0.00 | 0.00 | 75 | 1009.1 |
| 20260508113038 | 13 | 161 | 0.0 | 4.8 | 0.00 | 0.00 | 0.00 | 75 | 1009.0 |
| 20260508112511 | 13 | 195 | 1.6 | 4.8 | 0.00 | 0.00 | 0.00 | 75 | 1008.9 |
| 20260508112052 | 13 | 165 | 0.0 | 3.2 | 0.00 | 0.00 | 0.00 | 75 | 1009.1 |
| 20260508111535 | 12 | 144 | 0.0 | 3.2 | 0.00 | 0.00 | 0.00 | 75 | 1008.9 |
| 20260508111005 | 12 | 158 | 0.0 | 3.2 | 0.00 | 0.00 | 0.00 | 75 | 1008.9 |
| 20260508110544 | 12 | 152 | 0.0 | 3.2 | 0.00 | 0.00 | 0.00 | 75 | 1008.8 |
| 20260508110024 | 12 | 130 | 0.0 | 3.2 | 0.00 | 0.00 | 0.00 | 75 | 1008.9 |
| 20260508105604 | 12 | 160 | 0.0 | 3.2 | 0.00 | 0.00 | 0.00 | 75 | 1008.9 |
| 20260508105037 | 12 | 148 | 0.0 | 3.2 | 0.00 | 0.00 | 0.00 | 75 | 1008.9 |
| 20260508104512 | 12 | 112 | 0.0 | 3.2 | 0.00 | 0.00 | 0.00 | 75 | 1008.9 |
| 20260508104055 | 12 | 152 | 0.0 | 3.2 | 0.00 | 0.00 | 0.00 | 75 | 1008.8 |
| 20260508103531 | 12 | 158 | 0.0 | 4.8 | 0.00 | 0.00 | 0.00 | 75 | 1008.7 |
| 20260508103008 | 12 | 134 | 0.0 | 4.8 | 0.00 | 0.00 | 0.00 | 75 | 1008.8 |
| 20260508102548 | 12 | 159 | 0.0 | 3.2 | 0.00 | 0.00 | 0.00 | 75 | 1008.7 |
| 20260508102025 | 12 | 159 | 0.0 | 3.2 | 0.00 | 0.00 | 0.00 | 75 | 1008.8 |
| 20260508101501 | 12 | 158 | 0.0 | 3.2 | 0.00 | 0.00 | 0.00 | 75 | 1008.7 |
| 20260508101042 | 12 | 148 | 0.0 | 3.2 | 0.00 | 0.00 | 0.00 | 75 | 1008.7 |
| 20260508100522 | 12 | 155 | 0.0 | 4.8 | 0.00 | 0.00 | 0.00 | 75 | 1008.7 |
| 20260508100112 | 12 | 152 | 0.0 | 4.8 | 0.00 | 0.00 | 0.00 | 75 | 1008.6 |
| 20260508095534 | 12 | 164 | 0.0 | 4.8 | 0.00 | 0.00 | 0.00 | 75 | 1008.6 |
| 20260508095010 | 12 | 158 | 0.0 | 3.2 | 0.00 | 0.00 | 0.00 | 75 | 1008.7 |
| 20260508094602 | 12 | 168 | 0.0 | 3.2 | 0.00 | 0.00 | 0.00 | 75 | 1008.7 |
| 20260508094026 | 12 | 157 | 0.0 | 3.2 | 0.00 | 0.00 | 0.00 | 75 | 1008.7 |
| 20260508093504 | 12 | 160 | 0.0 | 3.2 | 0.00 | 0.00 | 0.00 | 75 | 1008.7 |
| 20260508093044 | 12 | 169 | 0.0 | 3.2 | 0.00 | 0.00 | 0.00 | 75 | 1008.7 |
| 20260508092520 | 12 | 164 | 0.0 | 6.4 | 0.00 | 0.00 | 0.00 | 75 | 1008.8 |
| 20260508092100 | 12 | 152 | 0.0 | 6.4 | 0.00 | 0.00 | 0.00 | 75 | 1008.7 |
| 20260508091540 | 12 | 147 | 1.6 | 3.2 | 0.00 | 0.00 | 0.00 | 75 | 1008.8 |
| 20260508091017 | 12 | 155 | 0.0 | 3.2 | 0.00 | 0.00 | 0.00 | 75 | 1008.9 |
| 20260508090555 | 12 | 150 | 0.0 | 3.2 | 0.00 | 0.00 | 0.00 | 74 | 1008.9 |
| 20260508090045 | 12 | 158 | 0.0 | 3.2 | 0.00 | 0.00 | 0.00 | 74 | 1008.9 |
| 20260508085506 | 12 | 147 | 0.0 | 3.2 | 0.00 | 0.00 | 0.00 | 74 | 1008.9 |
| 20260508085050 | 12 | 163 | 0.0 | 3.2 | 0.00 | 0.00 | 0.00 | 74 | 1008.8 |
| 20260508084522 | 12 | 161 | 0.0 | 3.2 | 0.00 | 0.00 | 0.00 | 74 | 1008.9 |
| 20260508084103 | 12 | 150 | 0.0 | 3.2 | 0.00 | 0.00 | 0.00 | 74 | 1008.9 |
| 20260508083539 | 12 | 151 | 0.0 | 3.2 | 0.00 | 0.00 | 0.00 | 74 | 1009.1 |
| 20260508083014 | 12 | 152 | 0.0 | 3.2 | 0.00 | 0.00 | 0.00 | 74 | 1009.0 |
| 20260508082555 | 12 | 143 | 0.0 | 3.2 | 0.00 | 0.00 | 0.00 | 74 | 1009.1 |
| 20260508082033 | 12 | 158 | 0.0 | 3.2 | 0.00 | 0.00 | 0.00 | 74 | 1009.2 |
| 20260508081508 | 12 | 141 | 1.6 | 3.2 | 0.00 | 0.00 | 0.00 | 74 | 1009.2 |
| 20260508081048 | 12 | 158 | 0.0 | 4.8 | 0.00 | 0.00 | 0.00 | 73 | 1009.3 |
| 20260508080531 | 12 | 165 | 0.0 | 4.8 | 0.00 | 0.00 | 0.00 | 73 | 1009.4 |
| 20260508080001 | 12 | 155 | 0.0 | 4.8 | 0.00 | 0.00 | 0.00 | 73 | 1009.4 |
| 20260508075544 | 12 | 162 | 0.0 | 3.2 | 0.00 | 0.00 | 0.00 | 73 | 1009.4 |
| 20260508075017 | 12 | 160 | 0.0 | 3.2 | 0.00 | 0.00 | 0.00 | 73 | 1009.6 |
| 20260508074558 | 12 | 160 | 0.0 | 3.2 | 0.00 | 0.00 | 0.00 | 73 | 1009.6 |
| 20260508074033 | 12 | 113 | 0.0 | 3.2 | 0.00 | 0.00 | 0.00 | 73 | 1009.6 |
| 20260508073511 | 12 | 151 | 0.0 | 4.8 | 0.00 | 0.00 | 0.00 | 72 | 1009.7 |
| 20260508073106 | 12 | 159 | 1.6 | 4.8 | 0.00 | 0.00 | 0.00 | 72 | 1009.7 |
| 20260508072526 | 13 | 153 | 0.0 | 3.2 | 0.00 | 0.00 | 0.00 | 72 | 1009.9 |
| 20260508072002 | 13 | 140 | 0.0 | 3.2 | 0.00 | 0.00 | 0.00 | 71 | 1009.9 |
| 20260508071544 | 13 | 121 | 0.0 | 3.2 | 0.00 | 0.00 | 0.00 | 71 | 1010.0 |
| 20260508071018 | 13 | 172 | 0.0 | 3.2 | 0.00 | 0.00 | 0.00 | 71 | 1010.1 |
| 20260508070558 | 13 | 138 | 0.0 | 3.2 | 0.00 | 0.00 | 0.00 | 70 | 1010.2 |
| 20260508070032 | 13 | 154 | 0.0 | 4.8 | 0.00 | 0.00 | 0.00 | 70 | 1010.2 |
| 20260508065508 | 13 | 157 | 0.0 | 4.8 | 0.00 | 0.00 | 0.00 | 70 | 1010.2 |
| 20260508065048 | 13 | 165 | 0.0 | 4.8 | 0.00 | 0.00 | 0.00 | 69 | 1010.3 |
| 20260508064524 | 13 | 161 | 0.0 | 4.8 | 0.00 | 0.00 | 0.00 | 69 | 1010.3 |
| 20260508064104 | 13 | 152 | 0.0 | 4.8 | 0.00 | 0.00 | 0.00 | 69 | 1010.4 |
| 20260508063541 | 13 | 167 | 0.0 | 4.8 | 0.00 | 0.00 | 0.00 | 69 | 1010.4 |
| 20260508063016 | 13 | 157 | 0.0 | 6.4 | 0.00 | 0.00 | 0.00 | 69 | 1010.4 |
| 20260508062557 | 13 | 126 | 1.6 | 6.4 | 0.00 | 0.00 | 0.00 | 69 | 1010.4 |
| 20260508062033 | 13 | 110 | 0.0 | 4.8 | 0.00 | 0.00 | 0.00 | 68 | 1010.5 |
| 20260508061509 | 13 | 158 | 0.0 | 4.8 | 0.00 | 0.00 | 0.00 | 68 | 1010.5 |
| 20260508061050 | 14 | 162 | 0.0 | 3.2 | 0.00 | 0.00 | 0.00 | 68 | 1010.5 |
| 20260508060527 | 14 | 162 | 0.0 | 4.8 | 0.00 | 0.00 | 0.00 | 67 | 1010.6 |
| 20260508060002 | 14 | 156 | 1.6 | 4.8 | 0.00 | 0.00 | 0.00 | 67 | 1010.5 |
| 20260508055543 | 14 | 163 | 0.0 | 3.2 | 0.00 | 0.00 | 0.00 | 67 | 1010.5 |
| 20260508055018 | 14 | 129 | 0.0 | 4.8 | 0.00 | 0.00 | 0.00 | 66 | 1010.6 |
| 20260508054600 | 14 | 159 | 0.0 | 6.4 | 0.00 | 0.00 | 0.00 | 66 | 1010.6 |
| 20260508054035 | 14 | 161 | 1.6 | 6.4 | 0.00 | 0.00 | 0.00 | 66 | 1010.5 |
| 20260508053510 | 14 | 161 | 0.0 | 4.8 | 0.00 | 0.00 | 0.00 | 66 | 1010.5 |
| 20260508053055 | 15 | 157 | 0.0 | 3.2 | 0.00 | 0.00 | 0.00 | 66 | 1010.5 |
| 20260508052530 | 15 | 154 | 0.0 | 4.8 | 0.00 | 0.00 | 0.00 | 66 | 1010.5 |
| 20260508052003 | 15 | 155 | 0.0 | 4.8 | 0.00 | 0.00 | 0.00 | 65 | 1010.6 |
| 20260508051602 | 15 | 161 | 0.0 | 3.2 | 0.00 | 0.00 | 0.00 | 65 | 1010.5 |
| 20260508051028 | 15 | 150 | 0.0 | 4.8 | 0.00 | 0.00 | 0.00 | 65 | 1010.6 |
| 20260508050600 | 15 | 131 | 0.0 | 4.8 | 0.00 | 0.00 | 0.00 | 65 | 1010.7 |
| 20260508050034 | 15 | 149 | 0.0 | 4.8 | 0.00 | 0.00 | 0.00 | 65 | 1010.7 |
| 20260508045510 | 15 | 148 | 0.0 | 4.8 | 0.00 | 0.00 | 0.00 | 65 | 1010.8 |
| 20260508045050 | 15 | 160 | 0.0 | 4.8 | 0.00 | 0.00 | 0.00 | 65 | 1010.7 |
| 20260508044527 | 15 | 162 | 0.0 | 6.4 | 0.00 | 0.00 | 0.00 | 64 | 1010.9 |
| 20260508044003 | 15 | 155 | 1.6 | 6.4 | 0.00 | 0.00 | 0.00 | 64 | 1010.9 |
| 20260508043543 | 15 | 113 | 0.0 | 6.4 | 0.00 | 0.00 | 0.00 | 64 | 1010.9 |
| 20260508043020 | 15 | 156 | 0.0 | 3.2 | 0.00 | 0.00 | 0.00 | 64 | 1010.9 |
| 20260508042601 | 15 | 146 | 0.0 | 8.0 | 0.00 | 0.00 | 0.00 | 64 | 1010.9 |
| 20260508042037 | 15 | 163 | 1.6 | 8.0 | 0.00 | 0.00 | 0.00 | 63 | 1010.9 |
| 20260508041514 | 15 | 162 | 1.6 | 6.4 | 0.00 | 0.00 | 0.00 | 63 | 1010.9 |
| 20260508041054 | 15 | 173 | 1.6 | 6.4 | 0.00 | 0.00 | 0.00 | 63 | 1011.0 |
| 20260508040531 | 15 | 160 | 1.6 | 4.8 | 0.00 | 0.00 | 0.00 | 63 | 1011.0 |
| 20260508040006 | 15 | 139 | 0.0 | 4.8 | 0.00 | 0.00 | 0.00 | 62 | 1010.9 |
| 20260508035547 | 15 | 146 | 0.0 | 4.8 | 0.00 | 0.00 | 0.00 | 62 | 1010.9 |
| 20260508035021 | 15 | 162 | 0.0 | 4.8 | 0.00 | 0.00 | 0.00 | 62 | 1010.9 |
| 20260508034601 | 15 | 153 | 0.0 | 4.8 | 0.00 | 0.00 | 0.00 | 62 | 1010.9 |
| 20260508034035 | 15 | 165 | 0.0 | 6.4 | 0.00 | 0.00 | 0.00 | 62 | 1010.9 |
| 20260508033503 | 15 | 170 | 0.0 | 4.8 | 0.00 | 0.00 | 0.00 | 62 | 1010.9 |
| 20260508033047 | 15 | 134 | 0.0 | 4.8 | 0.00 | 0.00 | 0.00 | 62 | 1010.9 |
| 20260508032524 | 16 | 168 | 0.0 | 4.8 | 0.00 | 0.00 | 0.00 | 62 | 1010.9 |
| 20260508032103 | 16 | 125 | 0.0 | 8.0 | 0.00 | 0.00 | 0.00 | 62 | 1010.9 |
| 20260508031541 | 15 | 147 | 1.6 | 8.0 | 0.00 | 0.00 | 0.00 | 62 | 1010.8 |
| 20260508031014 | 15 | 151 | 1.6 | 6.4 | 0.00 | 0.00 | 0.00 | 63 | 1010.9 |
| 20260508030553 | 15 | 167 | 0.0 | 4.8 | 0.00 | 0.00 | 0.00 | 63 | 1010.8 |
| 20260508030029 | 15 | 155 | 0.0 | 3.2 | 0.00 | 0.00 | 0.00 | 63 | 1010.7 |
| 20260508025505 | 15 | 167 | 1.6 | 6.4 | 0.00 | 0.00 | 0.00 | 63 | 1010.6 |
| 20260508025045 | 15 | 150 | 1.6 | 6.4 | 0.00 | 0.00 | 0.00 | 63 | 1010.6 |
| 20260508024546 | 15 | 161 | 0.0 | 3.2 | 0.00 | 0.00 | 0.00 | 64 | 1010.6 |
| 20260508024103 | 15 | 144 | 0.0 | 3.2 | 0.00 | 0.00 | 0.00 | 64 | 1010.5 |
| 20260508023539 | 15 | 135 | 0.0 | 3.2 | 0.00 | 0.00 | 0.00 | 63 | 1010.5 |
| 20260508023016 | 16 | 150 | 0.0 | 3.2 | 0.00 | 0.00 | 0.00 | 63 | 1010.4 |
| 20260508022601 | 16 | 158 | 0.0 | 3.2 | 0.00 | 0.00 | 0.00 | 62 | 1010.4 |
| 20260508022034 | 16 | 151 | 0.0 | 3.2 | 0.00 | 0.00 | 0.00 | 62 | 1010.3 |
| 20260508021509 | 16 | 161 | 0.0 | 3.2 | 0.00 | 0.00 | 0.00 | 62 | 1010.3 |
| 20260508021051 | 16 | 170 | 0.0 | 3.2 | 0.00 | 0.00 | 0.00 | 62 | 1010.3 |
| 20260508020527 | 16 | 145 | 0.0 | 3.2 | 0.00 | 0.00 | 0.00 | 61 | 1010.3 |
| 20260508020004 | 16 | 146 | 0.0 | 3.2 | 0.00 | 0.00 | 0.00 | 61 | 1010.2 |
| 20260508015543 | 16 | 149 | 0.0 | 1.6 | 0.00 | 0.00 | 0.00 | 61 | 1010.2 |
| 20260508015027 | 16 | 148 | 0.0 | 1.6 | 0.00 | 0.00 | 0.00 | 60 | 1010.2 |
| 20260508014504 | 16 | 156 | 0.0 | 1.6 | 0.00 | 0.00 | 0.00 | 59 | 1010.2 |
| 20260508014043 | 16 | 151 | 0.0 | 1.6 | 0.00 | 0.00 | 0.00 | 59 | 1010.2 |
| 20260508013523 | 17 | 138 | 0.0 | 1.6 | 0.00 | 0.00 | 0.00 | 58 | 1010.2 |
| 20260508013101 | 17 | 150 | 0.0 | 1.6 | 0.00 | 0.00 | 0.00 | 57 | 1010.1 |
| 20260508012537 | 17 | 153 | 0.0 | 1.6 | 0.00 | 0.00 | 0.00 | 57 | 1010.1 |
| 20260508012014 | 17 | 153 | 0.0 | 1.6 | 0.00 | 0.00 | 0.00 | 56 | 1010.1 |
| 20260508011605 | 17 | 156 | 0.0 | 1.6 | 0.00 | 0.00 | 0.00 | 56 | 1010.1 |
| 20260508011031 | 17 | 153 | 0.0 | 1.6 | 0.00 | 0.00 | 0.00 | 55 | 1010.0 |
| 20260508010508 | 17 | 148 | 0.0 | 1.6 | 0.00 | 0.00 | 0.00 | 55 | 1010.1 |
| 20260508010053 | 17 | 152 | 0.0 | 1.6 | 0.00 | 0.00 | 0.00 | 54 | 1010.1 |
| 20260508005524 | 17 | 148 | 0.0 | 1.6 | 0.00 | 0.00 | 0.00 | 54 | 1010.1 |
| 20260508005105 | 18 | 148 | 0.0 | 3.2 | 0.00 | 0.00 | 0.00 | 53 | 1010.1 |
| 20260508004550 | 18 | 148 | 0.0 | 3.2 | 0.00 | 0.00 | 0.00 | 53 | 1010.1 |
| 20260508004017 | 18 | 166 | 0.0 | 1.6 | 0.00 | 0.00 | 0.00 | 52 | 1010.2 |
| 20260508003558 | 18 | 136 | 0.0 | 3.2 | 0.00 | 0.00 | 0.00 | 52 | 1010.3 |
| 20260508003035 | 18 | 136 | 0.0 | 3.2 | 0.00 | 0.00 | 0.00 | 51 | 1010.2 |
| 20260508002510 | 18 | 138 | 0.0 | 3.2 | 0.00 | 0.00 | 0.00 | 50 | 1010.3 |
| 20260508002051 | 18 | 165 | 0.0 | 3.2 | 0.00 | 0.00 | 0.00 | 51 | 1010.3 |
| 20260508001536 | 18 | 165 | 0.0 | 3.2 | 0.00 | 0.00 | 0.00 | 49 | 1010.4 |
| 20260508001002 | 19 | 165 | 0.0 | 3.2 | 0.00 | 0.00 | 0.00 | 49 | 1010.4 |
| 20260508000542 | 19 | 159 | 0.0 | 4.8 | 0.00 | 0.00 | 0.00 | 48 | 1010.4 |
| 20260508000019 | 19 | 158 | 1.6 | 4.8 | 0.00 | 0.00 | 0.00 | 47 | 1010.5 |
| 20260507235600 | 19 | 259 | 0.0 | 6.4 | 0.00 | 0.00 | 0.00 | 47 | 1010.5 |
| 20260507235036 | 19 | 283 | 0.0 | 6.4 | 0.00 | 0.00 | 0.00 | 47 | 1010.6 |
| 20260507234513 | 19 | 168 | 0.0 | 4.8 | 0.00 | 0.00 | 0.00 | 48 | 1010.5 |
| 20260507234053 | 19 | 255 | 0.0 | 4.8 | 0.00 | 0.00 | 0.00 | 46 | 1010.5 |
| 20260507233529 | 19 | 200 | 0.0 | 3.2 | 0.00 | 0.00 | 0.00 | 48 | 1010.5 |
| 20260507233006 | 19 | 159 | 0.0 | 3.2 | 0.00 | 0.00 | 0.00 | 48 | 1010.5 |
| 20260507232547 | 19 | 300 | 0.0 | 3.2 | 0.00 | 0.00 | 0.00 | 49 | 1010.5 |
| 20260507232023 | 19 | 302 | 0.0 | 1.6 | 0.00 | 0.00 | 0.00 | 49 | 1010.5 |
| 20260507231606 | 19 | 302 | 0.0 | 1.6 | 0.00 | 0.00 | 0.00 | 48 | 1010.6 |
| 20260507231038 | 19 | 126 | 0.0 | 3.2 | 0.00 | 0.00 | 0.00 | 50 | 1010.7 |
| 20260507230511 | 19 | 156 | 0.0 | 6.4 | 0.00 | 0.00 | 0.00 | 48 | 1010.7 |
| 20260507230107 | 19 | 216 | 1.6 | 6.4 | 0.00 | 0.00 | 0.00 | 48 | 1010.7 |
| 20260507225528 | 19 | 157 | 0.0 | 9.7 | 0.00 | 0.00 | 0.00 | 50 | 1010.8 |
| 20260507225006 | 19 | 291 | 3.2 | 9.7 | 0.00 | 0.00 | 0.00 | 48 | 1010.7 |
| 20260507224551 | 19 | 166 | 0.0 | 4.8 | 0.00 | 0.00 | 0.00 | 49 | 1010.8 |
| 20260507224022 | 19 | 149 | 0.0 | 4.8 | 0.00 | 0.00 | 0.00 | 47 | 1010.8 |
| 20260507223603 | 19 | 295 | 0.0 | 3.2 | 0.00 | 0.00 | 0.00 | 48 | 1010.8 |
| 20260507223039 | 19 | 176 | 0.0 | 4.8 | 0.00 | 0.00 | 0.00 | 50 | 1010.8 |
| 20260507222519 | 19 | 176 | 0.0 | 6.4 | 0.00 | 0.00 | 0.00 | 47 | 1010.9 |
| 20260507222058 | 19 | 153 | 0.0 | 6.4 | 0.00 | 0.00 | 0.00 | 50 | 1010.9 |
| 20260507221539 | 19 | 142 | 0.0 | 4.8 | 0.00 | 0.00 | 0.00 | 49 | 1010.9 |
| 20260507221008 | 19 | 181 | 1.6 | 4.8 | 0.00 | 0.00 | 0.00 | 48 | 1011.0 |
| 20260507220548 | 19 | 236 | 0.0 | 4.8 | 0.00 | 0.00 | 0.00 | 49 | 1011.0 |
| 20260507220023 | 19 | 156 | 0.0 | 9.7 | 0.00 | 0.00 | 0.00 | 51 | 1011.0 |
| 20260507215606 | 19 | 216 | 3.2 | 9.7 | 0.00 | 0.00 | 0.00 | 47 | 1011.1 |
| 20260507215042 | 19 | 248 | 0.0 | 6.4 | 0.00 | 0.00 | 0.00 | 49 | 1011.2 |
| 20260507214517 | 19 | 162 | 0.0 | 6.4 | 0.00 | 0.00 | 0.00 | 51 | 1011.2 |
| 20260507214058 | 19 | 328 | 0.0 | 4.8 | 0.00 | 0.00 | 0.00 | 50 | 1011.3 |
| 20260507213535 | 19 | 265 | 0.0 | 4.8 | 0.00 | 0.00 | 0.00 | 48 | 1011.3 |
| 20260507213016 | 19 | 266 | 0.0 | 8.0 | 0.00 | 0.00 | 0.00 | 49 | 1011.4 |
| 20260507212551 | 19 | 117 | 1.6 | 8.0 | 0.00 | 0.00 | 0.00 | 49 | 1011.5 |
| 20260507212026 | 19 | 274 | 0.0 | 4.8 | 0.00 | 0.00 | 0.00 | 49 | 1011.5 |
| 20260507211502 | 19 | 283 | 0.0 | 4.8 | 0.00 | 0.00 | 0.00 | 50 | 1011.6 |
| 20260507211042 | 19 | 323 | 0.0 | 4.8 | 0.00 | 0.00 | 0.00 | 51 | 1011.7 |
| 20260507210522 | 19 | 248 | 1.6 | 9.7 | 0.00 | 0.00 | 0.00 | 51 | 1011.9 |
| 20260507210110 | 19 | 269 | 3.2 | 9.7 | 0.00 | 0.00 | 0.00 | 50 | 1012.1 |
| 20260507205534 | 19 | 262 | 1.6 | 4.8 | 0.00 | 0.00 | 0.00 | 50 | 1012.0 |
| 20260507205011 | 18 | 191 | 0.0 | 12.9 | 0.00 | 0.00 | 0.00 | 52 | 1012.1 |
| 20260507204551 | 18 | 169 | 1.6 | 12.9 | 0.00 | 0.00 | 0.00 | 51 | 1012.3 |
| 20260507204026 | 18 | 152 | 0.0 | 8.0 | 0.00 | 0.00 | 0.00 | 53 | 1012.4 |
| 20260507203504 | 18 | 270 | 1.6 | 9.7 | 0.00 | 0.00 | 0.00 | 52 | 1012.3 |
| 20260507203109 | 18 | 150 | 1.6 | 9.7 | 0.00 | 0.00 | 0.00 | 52 | 1012.5 |
| 20260507202522 | 18 | 144 | 0.0 | 14.5 | 0.00 | 0.00 | 0.00 | 52 | 1012.7 |
| 20260507202101 | 18 | 122 | 3.2 | 14.5 | 0.00 | 0.00 | 0.00 | 52 | 1012.5 |
| 20260507201537 | 18 | 158 | 0.0 | 6.4 | 0.00 | 0.00 | 0.00 | 54 | 1012.7 |
| 20260507201013 | 18 | 151 | 1.6 | 6.4 | 0.00 | 0.00 | 0.00 | 50 | 1012.7 |
| 20260507200558 | 18 | 250 | 1.6 | 8.0 | 0.00 | 0.00 | 0.00 | 50 | 1012.8 |
| 20260507200031 | 18 | 172 | 3.2 | 8.0 | 0.00 | 0.00 | 0.00 | 51 | 1012.8 |
| 20260507195507 | 18 | 312 | 0.0 | 11.3 | 0.00 | 0.00 | 0.00 | 53 | 1013.0 |
| 20260507195047 | 18 | 183 | 0.0 | 11.3 | 0.00 | 0.00 | 0.00 | 53 | 1013.0 |
| 20260507194528 | 18 | 164 | 0.0 | 6.4 | 0.00 | 0.00 | 0.00 | 52 | 1013.0 |
| 20260507194106 | 18 | 300 | 1.6 | 6.4 | 0.00 | 0.00 | 0.00 | 52 | 1013.2 |
| 20260507193541 | 18 | 275 | 0.0 | 6.4 | 0.00 | 0.00 | 0.00 | 51 | 1013.2 |
| 20260507193019 | 18 | 317 | 1.6 | 4.8 | 0.00 | 0.00 | 0.00 | 51 | 1013.2 |
| 20260507192558 | 18 | 286 | 1.6 | 4.8 | 0.00 | 0.00 | 0.00 | 52 | 1013.3 |
| 20260507192034 | 18 | 308 | 1.6 | 6.4 | 0.00 | 0.00 | 0.00 | 52 | 1013.3 |
| 20260507191514 | 18 | 311 | 0.0 | 6.4 | 0.00 | 0.00 | 0.00 | 53 | 1013.5 |
| 20260507191053 | 18 | 299 | 1.6 | 6.4 | 0.00 | 0.00 | 0.00 | 53 | 1013.5 |
| 20260507190527 | 18 | 317 | 3.2 | 6.4 | 0.00 | 0.00 | 0.00 | 53 | 1013.5 |
| 20260507190008 | 17 | 233 | 0.0 | 4.8 | 0.00 | 0.00 | 0.00 | 58 | 1013.8 |
| 20260507185543 | 17 | 162 | 0.0 | 8.0 | 0.00 | 0.00 | 0.00 | 57 | 1014.0 |
| 20260507185019 | 17 | 278 | 3.2 | 8.0 | 0.00 | 0.00 | 0.00 | 54 | 1014.1 |
| 20260507184600 | 17 | 286 | 0.0 | 8.0 | 0.00 | 0.00 | 0.00 | 56 | 1014.0 |
| 20260507184036 | 17 | 145 | 0.0 | 11.3 | 0.00 | 0.00 | 0.00 | 54 | 1014.2 |
| 20260507183510 | 17 | 282 | 0.0 | 6.4 | 0.00 | 0.00 | 0.00 | 53 | 1014.3 |
| 20260507183052 | 17 | 199 | 0.0 | 6.4 | 0.00 | 0.00 | 0.00 | 55 | 1014.3 |
| 20260507182527 | 17 | 262 | 1.6 | 6.4 | 0.00 | 0.00 | 0.00 | 55 | 1014.3 |
| 20260507182004 | 17 | 274 | 0.0 | 4.8 | 0.00 | 0.00 | 0.00 | 55 | 1014.5 |
| 20260507181543 | 17 | 285 | 1.6 | 4.8 | 0.00 | 0.00 | 0.00 | 54 | 1014.5 |
| 20260507181020 | 17 | 314 | 0.0 | 4.8 | 0.00 | 0.00 | 0.00 | 55 | 1014.6 |
| 20260507180559 | 17 | 243 | 1.6 | 9.7 | 0.00 | 0.00 | 0.00 | 54 | 1014.7 |
| 20260507180038 | 17 | 181 | 0.0 | 9.7 | 0.00 | 0.00 | 0.00 | 58 | 1014.7 |
| 20260507175509 | 17 | 298 | 0.0 | 4.8 | 0.00 | 0.00 | 0.00 | 56 | 1014.8 |
| 20260507175049 | 17 | 304 | 0.0 | 4.8 | 0.00 | 0.00 | 0.00 | 57 | 1014.8 |